RH
13 12 11 11 12 13 11 12 12 12 12 13 33 54 49 43 42 38 34 38 40 41 40 44 48 74 75 78 86 90 87 78
15 14 15 14 14 13 12 11 11 11 12 13 16 18 44 52 52 53 49 39 40 43 42 45 50 61 66 72 85 86 92 96
24 20 17 15 14 12 12 13 12 13 13 12 15 16 28 60 61 62 60 50 49 56 58 59 59 76 78 80 82 88 100 99
32 23 21 19 15 15 13 11 14 15 14 20 39 76 98 78 65 59 55 61 72 75 73 81 81 76 86 93 80 82 93 98
34 26 22 21 19 20 20 16 17 19 24 50 78 94 100 97 70 50 50 46 52 55 77 80 84 67 90 95 91 88 82 88
75 63 47 25 23 22 20 21 28 35 41 75 95 99 100 98 87 84 55 48 45 45 67 83 65 71 68 92 99 99 99 98
86 84 82 56 39 34 42 68 59 96 98 98 99 96 90 61 55 62 95 61 55 62 45 72 69 74 92 89 96 99 99 100
99 100 97 83 87 94 98 100 100 99 100 100 100 94 56 51 54 56 74 80 63 71 77 80 61 73 81 89 98 89 95 100
100 96 100 100 100 100 100 98 100 100 100 98 87 65 54 51 59 73 81 86 88 89 73 71 74 72 75 88 98 91 93 97
100 94 100 100 100 100 100 96 90 86 81 74 65 58 47 54 53 37 52 66 84 94 90 94 90 79 77 87 83 82 91 97
99 98 99 99 99 100 100 100 83 66 59 55 49 39 34 33 36 54 54 68 80 85 89 92 97 95 88 96 92 90 87 89
98 99 98 100 90 92 88 87 86 93 61 52 44 43 40 38 41 45 55 62 68 70 84 87 90 96 98 96 93 91 94 89
98 98 99 97 100 97 100 81 79 82 64 46 36 32 30 25 30 40 43 43 46 49 61 78 87 96 98 100 100 98 96 95
98 98 97 97 97 100 98 97 89 70 66 54 46 39 37 35 31 33 29 34 41 45 49 59 77 89 98 100 100 100 99 98
99 97 97 98 98 98 100 98 98 81 66 52 48 44 41 42 42 37 40 38 33 40 47 50 57 74 87 99 100 100 100 100
93 99 97 96 93 97 94 92 91 83 76 61 57 54 52 53 51 50 47 48 48 49 47 49 50 53 70 100 99 99 100 99
91 94 93 99 94 92 97 88 89 87 79 74 64 58 55 52 53 51 52 50 52 53 57 53 50 56 70 86 98 99 100 100
96 100 98 99 90 95 92 91 84 78 81 73 63 57 58 56 57 54 53 52 56 60 60 58 52 54 63 79 89 92 97 98
99 100 99 91 85 82 78 83 85 87 87 82 74 66 65 65 62 58 56 58 63 64 62 61 54 50 58 68 89 96 97 99
Wind_Speed
20 17 16 17 20 20 21 25 26 27 28 35 44 50 51 49 46 44 43 40 40 38 37 35 34 36 35 34 33 30 30 29
23 22 18 16 17 21 24 27 29 31 35 37 44 50 54 54 50 44 40 37 35 35 34 33 33 34 37 36 34 31 30 29
28 28 25 25 27 28 28 27 31 35 39 41 41 48 54 57 51 43 34 32 29 30 31 33 34 35 35 34 36 34 32 31
37 39 39 38 35 32 32 31 29 34 38 43 42 37 36 48 50 43 33 30 29 28 29 31 32 33 35 34 34 36 37 37
38 40 41 38 37 37 34 29 29 34 37 40 40 40 39 42 45 36 36 37 40 31 28 31 27 31 33 33 35 36 36 36
35 41 42 41 38 37 39 29 29 31 34 34 37 36 33 29 28 31 31 34 39 36 31 28 26 37 37 33 35 34 38 37
35 40 40 39 37 28 29 26 26 20 23 31 35 34 31 25 19 20 29 35 35 35 31 38 36 41 40 35 35 35 39 35
34 38 39 33 17 19 14 12 16 20 25 28 30 32 23 15 16 13 31 32 29 32 32 37 38 38 36 35 37 35 37 39
31 38 41 31 21 3 11 13 16 18 23 24 21 22 17 12 15 19 23 19 19 23 27 32 33 33 33 34 35 36 37 38
33 40 42 37 32 27 18 15 17 16 18 19 19 17 19 19 17 15 14 14 16 19 23 25 27 32 33 34 33 32 36 37
36 35 39 38 30 26 22 17 17 17 16 16 14 12 8 6 7 9 9 12 15 17 18 19 23 27 30 32 34 33 34 35
32 34 35 37 35 31 26 22 16 15 15 13 12 11 7 3 2 3 6 7 11 14 17 18 20 23 26 29 31 32 34 36
29 35 37 37 37 33 31 26 21 19 17 14 10 6 6 4 5 6 8 9 10 12 14 20 21 22 24 28 30 33 34 36
28 32 37 38 37 34 32 30 26 23 19 13 10 7 6 4 7 9 10 11 12 14 16 17 20 22 21 24 26 30 32 36
27 31 32 33 33 32 32 30 28 24 21 14 8 6 6 7 9 10 12 12 13 14 15 18 18 22 24 23 22 25 29 32
26 26 27 29 32 32 25 26 23 19 18 15 12 9 8 9 9 11 13 14 13 14 15 17 18 19 21 24 24 26 30 31
24 24 26 24 27 28 26 22 21 21 20 18 15 13 12 11 12 11 12 14 13 13 14 16 17 17 20 22 25 27 26 28
23 22 23 24 26 24 25 24 25 26 22 18 16 15 14 13 14 13 13 15 15 15 15 15 16 18 19 22 25 30 30 30
21 23 24 24 26 27 26 25 26 26 24 23 23 20 17 16 16 15 15 15 16 18 17 16 15 17 19 21 24 31 33 32
Wind_Direction
326 320 306 288 272 268 272 266 262 258 259 253 246 241 238 238 239 240 239 237 234 235 237 237 232 225 225 226 228 228 229 229
311 309 306 304 286 284 278 273 260 259 258 255 243 242 239 237 237 239 243 241 239 238 240 240 238 229 228 227 228 230 232 226
325 317 308 305 305 295 284 276 266 261 258 259 258 246 242 235 234 237 242 242 237 238 239 240 238 232 228 227 228 228 230 233
330 321 316 312 308 303 291 273 264 264 263 253 250 238 232 235 234 234 231 227 237 241 243 243 244 239 233 226 228 227 227 230
327 321 310 302 301 302 297 278 266 263 262 245 238 219 213 222 232 228 222 232 242 243 257 250 256 258 236 230 234 233 231 233
326 321 310 301 299 299 297 282 276 268 250 236 226 214 213 223 229 222 213 228 232 236 240 252 240 254 247 235 236 239 239 235
328 323 315 303 295 293 280 279 273 256 227 220 215 214 218 209 218 211 249 225 227 221 235 232 233 244 246 244 243 241 240 242
344 347 330 319 296 266 245 229 231 217 210 215 217 200 194 213 229 232 244 247 238 233 224 228 234 237 243 246 245 246 243 240
2 12 12 21 26 136 189 155 139 144 147 150 147 158 173 178 183 226 228 242 241 239 233 234 237 242 247 247 245 247 245 244
13 14 12 19 32 38 48 99 110 108 115 125 130 136 146 159 179 208 230 233 238 246 245 244 243 243 245 245 246 243 244 245
15 16 18 12 31 42 47 60 83 97 97 97 99 114 142 180 192 196 227 236 242 246 251 253 246 244 242 242 241 243 245 243
17 13 15 23 13 24 34 44 56 43 98 86 84 85 93 141 227 249 246 250 254 256 257 255 254 249 242 242 244 244 244 244
11 10 10 11 19 7 14 33 27 34 54 74 90 70 68 14 301 282 278 275 279 276 272 263 258 258 255 244 245 243 243 244
8 5 360 7 7 13 8 22 21 29 27 47 56 43 34 343 307 298 290 283 281 277 276 273 262 259 255 253 251 247 246 244
2 1 357 357 3 7 7 15 21 15 17 27 23 5 349 329 318 308 295 289 276 272 273 273 274 260 255 251 263 257 253 252
359 356 355 352 359 360 13 11 8 10 12 8 16 5 352 336 324 313 306 302 297 293 284 272 269 274 263 255 253 256 261 261
350 353 351 353 357 354 6 7 360 6 11 9 3 1 354 339 326 319 311 303 299 300 295 283 276 269 265 251 252 252 260 255
346 348 349 350 353 355 1 5 8 8 7 5 8 4 352 336 328 324 317 310 309 311 304 296 281 274 270 262 250 251 253 255
347 345 349 354 354 360 4 7 9 8 5 5 7 6 355 343 333 325 319 314 311 312 310 305 293 281 275 269 259 248 247 253